DLH8HT EDDM-EDDF

Flight info

Callsign DLH8HT
Flight time 0h 41m
Altitude 24000
Route GIVMI6S GIVMI Y101 ERNAS T161 DEBHI DEBHI1B
Aircraft A359/H-SDE2E3GHIJ3J4J5LM1ORWXY/LB1D1

Departure

Time 2026-05-07 16:07
Airport Munich Airport (EDDM)

Arrival

Time 2026-05-07 16:49
Airport Frankfurt Main Airport (EDDF)
Time Latitude Longitude Altitude Speed Heading
2026-05-07 15:43 48.35790 11.79273 1480 ft 0 kts 263°
2026-05-07 15:45 48.35788 11.79253 1480 ft 0 kts 263°
2026-05-07 15:46 48.35790 11.79273 1477 ft 0 kts 263°
2026-05-07 15:56 48.35790 11.79277 1477 ft 2 kts 263°
2026-05-07 15:56 48.35793 11.79316 1490 ft 4 kts 263°
2026-05-07 15:57 48.35795 11.79347 1477 ft 4 kts 270°
2026-05-07 15:57 48.35791 11.79380 1477 ft 4 kts 298°
2026-05-07 15:57 48.35782 11.79396 1477 ft 4 kts 342°
2026-05-07 15:57 48.35760 11.79401 1477 ft 4 kts 353°
2026-05-07 15:58 48.35737 11.79405 1477 ft 1 kts 353°
2026-05-07 16:00 48.35741 11.79404 1477 ft 3 kts 353°
2026-05-07 16:00 48.35798 11.79394 1477 ft 12 kts 353°
2026-05-07 16:00 48.35882 11.79423 1480 ft 13 kts 46°
2026-05-07 16:01 48.35963 11.79497 1485 ft 13 kts 356°
2026-05-07 16:01 48.35989 11.79494 1485 ft 4 kts 355°
2026-05-07 16:01 48.36038 11.79488 1486 ft 10 kts 355°
2026-05-07 16:01 48.36143 11.79472 1490 ft 18 kts 353°
2026-05-07 16:02 48.36222 11.79564 1480 ft 16 kts 72°
2026-05-07 16:02 48.36236 11.79753 1479 ft 19 kts 84°
2026-05-07 16:02 48.36251 11.79973 1485 ft 22 kts 83°
2026-05-07 16:02 48.36271 11.80220 1489 ft 24 kts 83°
2026-05-07 16:03 48.36293 11.80484 1482 ft 26 kts 83°
2026-05-07 16:03 48.36314 11.80755 1485 ft 25 kts 83°
2026-05-07 16:03 48.36334 11.81014 1494 ft 24 kts 83°
2026-05-07 16:03 48.36353 11.81255 1480 ft 22 kts 83°
2026-05-07 16:04 48.36372 11.81503 1488 ft 24 kts 83°
2026-05-07 16:04 48.36391 11.81756 1484 ft 23 kts 83°
2026-05-07 16:04 48.36392 11.81964 1483 ft 19 kts 90°
2026-05-07 16:04 48.36432 11.82125 1482 ft 15 kts 24°
2026-05-07 16:05 48.36511 11.82126 1490 ft 9 kts 354°
2026-05-07 16:05 48.36544 11.82121 1480 ft 6 kts 354°
2026-05-07 16:05 48.36593 11.82110 1482 ft 8 kts 345°
2026-05-07 16:05 48.36653 11.82064 1482 ft 12 kts 315°
2026-05-07 16:06 48.36674 11.81935 1489 ft 14 kts 263°
2026-05-07 16:06 48.36672 11.81915 1486 ft 1 kts 263°
2026-05-07 16:06 48.36671 11.81902 1485 ft 0 kts 263°
2026-05-07 16:06 48.36671 11.81900 1485 ft 1 kts 263°
2026-05-07 16:07 48.36648 11.81607 1494 ft 71 kts 264°
2026-05-07 16:07 48.36557 11.80423 1492 ft 151 kts 264°
2026-05-07 16:07 48.36436 11.78540 1800 ft 192 kts 267°
2026-05-07 16:07 48.36313 11.76527 2898 ft 194 kts 267°
2026-05-07 16:08 48.36170 11.74451 4090 ft 188 kts 265°
2026-05-07 16:08 48.36006 11.72402 4774 ft 202 kts 264°
2026-05-07 16:08 48.35821 11.70196 5333 ft 218 kts 264°
2026-05-07 16:08 48.35923 11.67778 5952 ft 233 kts 286°
2026-05-07 16:09 48.36660 11.65425 6835 ft 243 kts 299°
2026-05-07 16:09 48.37589 11.63152 7509 ft 260 kts 301°
2026-05-07 16:09 48.38584 11.60780 8325 ft 269 kts 300°
2026-05-07 16:09 48.39600 11.58338 9379 ft 271 kts 300°
2026-05-07 16:10 48.40625 11.55849 10380 ft 275 kts 299°
2026-05-07 16:10 48.41631 11.53385 11315 ft 278 kts 299°
2026-05-07 16:10 48.42657 11.50856 12239 ft 282 kts 299°
2026-05-07 16:10 48.43694 11.48297 13206 ft 286 kts 299°
2026-05-07 16:11 48.44812 11.45585 14147 ft 292 kts 303°
2026-05-07 16:11 48.46395 11.43354 15004 ft 303 kts 326°
2026-05-07 16:11 48.48463 11.42207 15710 ft 320 kts 344°
2026-05-07 16:11 48.50785 11.41577 16217 ft 338 kts 347°
2026-05-07 16:12 48.53174 11.40994 16660 ft 356 kts 347°
2026-05-07 16:12 48.55696 11.40359 17068 ft 373 kts 347°
2026-05-07 16:12 48.58287 11.39680 17808 ft 378 kts 347°
2026-05-07 16:12 48.60854 11.38993 18962 ft 370 kts 346°
2026-05-07 16:13 48.63414 11.38296 20061 ft 363 kts 346°
2026-05-07 16:13 48.65879 11.37619 21260 ft 354 kts 346°
2026-05-07 16:13 48.68308 11.36894 22452 ft 345 kts 342°
2026-05-07 16:13 48.70554 11.35720 23355 ft 342 kts 332°
2026-05-07 16:14 48.72695 11.33951 23863 ft 342 kts 324°
2026-05-07 16:14 48.74750 11.31874 24019 ft 342 kts 323°
2026-05-07 16:14 48.76728 11.29814 24018 ft 342 kts 323°
2026-05-07 16:14 48.78783 11.27690 24028 ft 342 kts 323°
2026-05-07 16:15 48.80774 11.25652 24025 ft 342 kts 323°
2026-05-07 16:15 48.82769 11.23609 24028 ft 342 kts 322°
2026-05-07 16:15 48.84702 11.21422 24027 ft 341 kts 319°
2026-05-07 16:15 48.86532 11.19045 24029 ft 340 kts 315°
2026-05-07 16:16 48.88327 11.16560 24025 ft 340 kts 315°
2026-05-07 16:16 48.90103 11.14076 24032 ft 341 kts 315°
2026-05-07 16:16 48.91881 11.11588 24036 ft 341 kts 315°
2026-05-07 16:16 48.93647 11.09120 24038 ft 341 kts 315°
2026-05-07 16:17 48.95410 11.06657 24039 ft 341 kts 315°
2026-05-07 16:17 48.97177 11.04187 24042 ft 342 kts 315°
2026-05-07 16:17 48.98942 11.01715 24045 ft 342 kts 315°
2026-05-07 16:17 49.00726 10.99212 24054 ft 342 kts 315°
2026-05-07 16:18 49.02478 10.96752 24059 ft 342 kts 315°
2026-05-07 16:18 49.04244 10.94270 24068 ft 342 kts 315°
2026-05-07 16:18 49.06030 10.91758 24069 ft 342 kts 315°
2026-05-07 16:18 49.07796 10.89271 24066 ft 343 kts 315°
2026-05-07 16:19 49.09544 10.86805 24071 ft 343 kts 315°
2026-05-07 16:19 49.11343 10.84264 24066 ft 343 kts 315°
2026-05-07 16:19 49.13151 10.81707 24068 ft 343 kts 315°
2026-05-07 16:19 49.14957 10.79149 24072 ft 344 kts 315°
2026-05-07 16:20 49.16761 10.76592 24066 ft 344 kts 315°
2026-05-07 16:20 49.18527 10.74086 24070 ft 344 kts 315°
2026-05-07 16:20 49.20273 10.71515 24061 ft 344 kts 313°
2026-05-07 16:20 49.21980 10.68850 24061 ft 340 kts 312°
2026-05-07 16:21 49.23598 10.66302 24055 ft 326 kts 312°
2026-05-07 16:21 49.25147 10.63859 24049 ft 312 kts 312°
2026-05-07 16:21 49.26636 10.61511 24047 ft 297 kts 312°
2026-05-07 16:21 49.28076 10.59236 24055 ft 301 kts 311°
2026-05-07 16:22 49.29620 10.56786 24063 ft 326 kts 312°
2026-05-07 16:22 49.31234 10.54228 24067 ft 342 kts 312°
2026-05-07 16:22 49.32933 10.51541 24068 ft 346 kts 312°
2026-05-07 16:22 49.34597 10.48896 24064 ft 346 kts 311°
2026-05-07 16:23 49.36242 10.46001 24056 ft 346 kts 307°
2026-05-07 16:23 49.37720 10.43003 24052 ft 346 kts 304°
2026-05-07 16:23 49.39092 10.40019 24051 ft 346 kts 303°
2026-05-07 16:23 49.40531 10.36852 23949 ft 347 kts 303°
2026-05-07 16:24 49.41928 10.33775 23706 ft 345 kts 303°
2026-05-07 16:24 49.43284 10.30789 23445 ft 343 kts 303°
2026-05-07 16:24 49.44678 10.27725 23161 ft 342 kts 303°
2026-05-07 16:24 49.46049 10.24709 22885 ft 341 kts 303°
2026-05-07 16:25 49.47417 10.21698 22596 ft 339 kts 303°
2026-05-07 16:25 49.48820 10.18607 22218 ft 338 kts 303°
2026-05-07 16:25 49.50189 10.15587 21794 ft 337 kts 303°
2026-05-07 16:25 49.51554 10.12571 21397 ft 334 kts 303°
2026-05-07 16:26 49.52886 10.09624 21041 ft 331 kts 303°
2026-05-07 16:26 49.54274 10.06553 20652 ft 329 kts 303°
2026-05-07 16:26 49.55610 10.03590 20245 ft 327 kts 303°
2026-05-07 16:26 49.56469 10.01683 19985 ft 326 kts 303°
2026-05-07 16:27 49.58245 9.97737 19380 ft 326 kts 303°
2026-05-07 16:27 49.59115 9.95801 19193 ft 323 kts 303°
2026-05-07 16:27 49.60855 9.91927 18747 ft 321 kts 303°
2026-05-07 16:27 49.62133 9.89077 18325 ft 321 kts 303°
2026-05-07 16:28 49.63418 9.86208 17970 ft 318 kts 303°
2026-05-07 16:28 49.64256 9.84336 17707 ft 316 kts 303°
2026-05-07 16:28 49.65961 9.80525 17224 ft 314 kts 303°
2026-05-07 16:28 49.67201 9.77747 16847 ft 312 kts 303°
2026-05-07 16:29 49.68055 9.75835 16580 ft 311 kts 303°
2026-05-07 16:29 49.69299 9.73046 16227 ft 308 kts 303°
2026-05-07 16:29 49.70581 9.70167 15935 ft 303 kts 303°
2026-05-07 16:29 49.71767 9.67503 15721 ft 295 kts 303°
2026-05-07 16:30 49.72924 9.64899 15375 ft 293 kts 303°
2026-05-07 16:30 49.74113 9.62221 15027 ft 292 kts 303°
2026-05-07 16:30 49.75283 9.59578 14619 ft 290 kts 303°
2026-05-07 16:30 49.76428 9.56995 14243 ft 288 kts 303°
2026-05-07 16:31 49.77572 9.54414 14076 ft 280 kts 303°
2026-05-07 16:31 49.78693 9.51881 13912 ft 271 kts 303°
2026-05-07 16:31 49.79768 9.49449 13731 ft 263 kts 303°
2026-05-07 16:31 49.80821 9.47062 13399 ft 261 kts 303°
2026-05-07 16:32 49.81849 9.44729 13068 ft 260 kts 303°
2026-05-07 16:32 49.82870 9.42412 12720 ft 258 kts 303°
2026-05-07 16:32 49.83915 9.40037 12284 ft 258 kts 303°
2026-05-07 16:32 49.84917 9.37707 11909 ft 255 kts 300°
2026-05-07 16:33 49.85788 9.35320 11516 ft 253 kts 295°
2026-05-07 16:33 49.86512 9.32851 11137 ft 251 kts 290°
2026-05-07 16:33 49.87100 9.30263 10755 ft 248 kts 286°
2026-05-07 16:33 49.87598 9.27678 10336 ft 248 kts 285°
2026-05-07 16:34 49.88083 9.25116 9969 ft 246 kts 285°
2026-05-07 16:34 49.88570 9.22540 9561 ft 245 kts 285°
2026-05-07 16:34 49.89042 9.20049 9179 ft 243 kts 285°
2026-05-07 16:34 49.89530 9.17484 8809 ft 241 kts 285°
2026-05-07 16:35 49.89998 9.15022 8436 ft 239 kts 285°
2026-05-07 16:35 49.90471 9.12533 8058 ft 238 kts 285°
2026-05-07 16:35 49.90948 9.10027 7567 ft 236 kts 285°
2026-05-07 16:35 49.91405 9.07616 7234 ft 234 kts 285°
2026-05-07 16:36 49.91907 9.04971 6814 ft 233 kts 285°
2026-05-07 16:36 49.92383 9.02458 6431 ft 231 kts 285°
2026-05-07 16:36 49.92839 9.00037 6085 ft 229 kts 285°
2026-05-07 16:36 49.93361 8.97582 5727 ft 229 kts 293°
2026-05-07 16:37 49.94185 8.95425 5389 ft 229 kts 307°
2026-05-07 16:37 49.95309 8.93646 5051 ft 230 kts 320°
2026-05-07 16:37 49.96780 8.92253 4708 ft 232 kts 334°
2026-05-07 16:37 49.98373 8.91494 4358 ft 233 kts 348°
2026-05-07 16:38 50.00002 8.91363 4063 ft 232 kts
2026-05-07 16:38 50.01649 8.91867 4037 ft 236 kts 17°
2026-05-07 16:38 50.03173 8.92980 4041 ft 240 kts 31°
2026-05-07 16:38 50.04493 8.94667 4025 ft 241 kts 46°
2026-05-07 16:39 50.05519 8.96860 4009 ft 242 kts 61°
2026-05-07 16:39 50.06161 8.99437 3996 ft 243 kts 77°
2026-05-07 16:39 50.06369 9.02117 3983 ft 242 kts 89°
2026-05-07 16:39 50.06413 9.04773 3958 ft 242 kts 85°
2026-05-07 16:40 50.06739 9.07447 3963 ft 244 kts 73°
2026-05-07 16:40 50.07285 9.10125 3966 ft 243 kts 71°
2026-05-07 16:40 50.07862 9.12635 3929 ft 234 kts 67°
2026-05-07 16:40 50.08858 9.14722 3893 ft 219 kts 30°
2026-05-07 16:41 50.10286 9.15414 3916 ft 213 kts 354°
2026-05-07 16:41 50.11730 9.14903 3957 ft 209 kts 331°
2026-05-07 16:41 50.12825 9.13343 3930 ft 203 kts 295°
2026-05-07 16:41 50.13375 9.11151 3961 ft 203 kts 285°
2026-05-07 16:42 50.13798 9.08844 3939 ft 202 kts 283°
2026-05-07 16:42 50.14201 9.06541 3964 ft 202 kts 281°
2026-05-07 16:42 50.14324 9.04302 3959 ft 202 kts 266°
2026-05-07 16:42 50.14099 9.02020 3978 ft 201 kts 255°
2026-05-07 16:43 50.13713 8.99860 3972 ft 201 kts 253°
2026-05-07 16:43 50.13295 8.97719 3977 ft 201 kts 252°
2026-05-07 16:43 50.12852 8.95628 3990 ft 197 kts 251°
2026-05-07 16:43 50.12422 8.93718 4026 ft 177 kts 250°
2026-05-07 16:44 50.12000 8.91905 4002 ft 170 kts 250°
2026-05-07 16:44 50.11565 8.90079 4022 ft 169 kts 250°
2026-05-07 16:44 50.11125 8.88249 4028 ft 169 kts 250°
2026-05-07 16:44 50.10673 8.86387 4036 ft 169 kts 250°
2026-05-07 16:45 50.10237 8.84590 4009 ft 169 kts 250°
2026-05-07 16:45 50.09798 8.82785 3786 ft 168 kts 250°
2026-05-07 16:45 50.09363 8.80992 3571 ft 167 kts 250°
2026-05-07 16:45 50.08931 8.79204 3333 ft 168 kts 250°
2026-05-07 16:46 50.08514 8.77481 3110 ft 168 kts 250°
2026-05-07 16:46 50.08083 8.75697 2892 ft 167 kts 251°
2026-05-07 16:46 50.07644 8.73875 2655 ft 169 kts 252°
2026-05-07 16:46 50.07216 8.72091 2423 ft 169 kts 252°
2026-05-07 16:47 50.06809 8.70248 2190 ft 168 kts 261°
2026-05-07 16:47 50.06587 8.68389 2121 ft 169 kts 262°
2026-05-07 16:47 50.06298 8.66431 1954 ft 174 kts 255°
2026-05-07 16:47 50.05892 8.64654 1736 ft 165 kts 253°
2026-05-07 16:48 50.05487 8.62871 1323 ft 159 kts 255°
2026-05-07 16:48 50.05116 8.61075 815 ft 157 kts 252°
2026-05-07 16:48 50.04700 8.59442 484 ft 146 kts 247°
2026-05-07 16:48 50.04328 8.57931 376 ft 116 kts 249°
2026-05-07 16:49 50.04127 8.57093 373 ft 57 kts 250°
2026-05-07 16:49 50.04016 8.56620 368 ft 30 kts 250°
2026-05-07 16:49 50.03995 8.56357 364 ft 17 kts 276°
2026-05-07 16:49 50.04003 8.56273 362 ft 2 kts 279°
2026-05-07 16:50 50.04005 8.56256 365 ft 0 kts 279°
2026-05-07 16:50 50.04007 8.56236 365 ft 6 kts 279°
2026-05-07 16:51 50.04022 8.56175 364 ft 0 kts 308°
2026-05-07 16:51 50.04022 8.56174 364 ft 0 kts 308°
2026-05-07 16:52 50.04043 8.56154 365 ft 0 kts 340°
2026-05-07 16:52 50.04061 8.56123 366 ft 8 kts 293°
2026-05-07 16:52 50.04077 8.56019 364 ft 10 kts 296°
2026-05-07 16:52 50.04142 8.55937 368 ft 13 kts 337°
2026-05-07 16:53 50.04240 8.55939 366 ft 14 kts 17°
2026-05-07 16:53 50.04354 8.55923 369 ft 16 kts 343°
2026-05-07 16:53 50.04467 8.55926 369 ft 17 kts 18°
2026-05-07 16:53 50.04562 8.56019 366 ft 16 kts 62°
2026-05-07 16:54 50.04594 8.56130 368 ft 11 kts 67°
2026-05-07 16:54 50.04658 8.56179 367 ft 1 kts 344°
2026-05-07 16:54 50.04666 8.56176 370 ft 3 kts 347°
2026-05-07 16:54 50.04690 8.56165 368 ft 0 kts 341°